Time,TemperatureF,DewpointF,PressureIn,WindDirection,WindDirectionDegrees,WindSpeedMPH,WindSpeedGustMPH,Humidity,HourlyPrecipIn,Conditions,Clouds,dailyrainin,SoftwareType,DateUTC
2013-10-26 00:13:00,41.0,36.0,30.29,SW,229,0.0,0.0,83,0.00,,,0.00,,2013-10-26 05:13:00,
2013-10-26 00:23:00,41.0,36.0,30.29,North,360,0.0,0.0,83,0.00,,,0.00,,2013-10-26 05:23:00,
2013-10-26 00:43:00,41.0,36.0,30.29,ENE,74,0.0,0.0,83,0.00,,,0.00,,2013-10-26 05:43:00,
2013-10-26 00:52:00,40.0,36.0,30.28,ENE,75,0.0,0.0,85,0.00,,,0.00,,2013-10-26 05:52:00,
2013-10-26 01:12:00,40.0,36.0,30.27,ENE,75,0.0,0.0,87,0.00,,,0.00,,2013-10-26 06:12:00,
2013-10-26 01:22:00,39.0,35.0,30.27,ESE,103,0.0,0.0,87,0.00,,,0.00,,2013-10-26 06:22:00,
2013-10-26 01:42:00,39.0,36.0,30.26,ESE,110,0.0,0.0,88,0.00,,,0.00,,2013-10-26 06:42:00,
2013-10-26 01:52:00,39.0,35.0,30.26,ESE,105,0.0,1.0,87,0.00,,,0.00,,2013-10-26 06:52:00,
2013-10-26 02:12:00,39.0,35.0,30.25,East,80,0.0,1.0,85,0.00,,,0.00,,2013-10-26 07:12:00,
2013-10-26 02:22:00,40.0,35.0,30.25,ESE,121,0.0,1.0,82,0.00,,,0.00,,2013-10-26 07:22:00,
2013-10-26 02:42:00,40.0,35.0,30.25,NE,56,0.0,1.0,82,0.00,,,0.00,,2013-10-26 07:42:00,
2013-10-26 02:52:00,40.0,35.0,30.25,ENE,57,0.0,0.0,82,0.00,,,0.00,,2013-10-26 07:52:00,
2013-10-26 03:12:00,39.0,34.0,30.24,ENE,57,0.0,0.0,82,0.00,,,0.00,,2013-10-26 08:12:00,
2013-10-26 03:22:00,39.0,34.0,30.24,East,86,0.0,1.0,82,0.00,,,0.00,,2013-10-26 08:22:00,
2013-10-26 03:42:00,39.0,34.0,30.24,East,96,0.0,1.0,82,0.00,,,0.00,,2013-10-26 08:42:00,
2013-10-26 03:52:00,39.0,34.0,30.24,East,89,0.0,0.0,83,0.00,,,0.00,,2013-10-26 08:52:00,
2013-10-26 04:11:00,39.0,34.0,30.23,ENE,69,0.0,1.0,82,0.00,,,0.00,,2013-10-26 09:11:00,
2013-10-26 04:22:00,38.0,33.0,30.23,ESE,103,0.0,1.0,83,0.00,,,0.00,,2013-10-26 09:22:00,
2013-10-26 04:43:00,38.0,33.0,30.23,ESE,116,0.0,1.0,83,0.00,,,0.00,,2013-10-26 09:43:00,
2013-10-26 04:53:00,38.0,33.0,30.23,East,91,0.0,1.0,83,0.00,,,0.00,,2013-10-26 09:53:00,
2013-10-26 05:13:00,38.0,33.0,30.24,ESE,105,0.0,0.0,83,0.00,,,0.00,,2013-10-26 10:13:00,
2013-10-26 05:23:00,38.0,33.0,30.24,East,86,0.0,1.0,82,0.00,,,0.00,,2013-10-26 10:23:00,
2013-10-26 05:53:00,38.0,33.0,30.24,ENE,76,0.0,0.0,82,0.00,,,0.00,,2013-10-26 10:53:00,
2013-10-26 06:12:00,38.0,33.0,30.24,ENE,78,0.0,0.0,83,0.00,,,0.00,,2013-10-26 11:12:00,
2013-10-26 06:22:00,38.0,34.0,30.24,ENE,78,0.0,0.0,84,0.00,,,0.00,,2013-10-26 11:22:00,
2013-10-26 06:42:00,37.0,33.0,30.25,ENE,78,0.0,0.0,85,0.00,,,0.00,,2013-10-26 11:42:00,
2013-10-26 06:52:00,37.0,33.0,30.25,ENE,78,0.0,0.0,86,0.00,,,0.00,,2013-10-26 11:52:00,
2013-10-26 07:12:00,37.0,33.0,30.25,ENE,78,0.0,0.0,86,0.00,,,0.00,,2013-10-26 12:12:00,
2013-10-26 07:22:00,37.0,34.0,30.26,ENE,78,0.0,0.0,87,0.00,,,0.00,,2013-10-26 12:22:00,
2013-10-26 07:42:00,37.0,34.0,30.26,ENE,78,0.0,0.0,87,0.00,,,0.00,,2013-10-26 12:42:00,
2013-10-26 07:52:00,38.0,34.0,30.26,ENE,78,0.0,0.0,87,0.00,,,0.00,,2013-10-26 12:52:00,
2013-10-26 08:11:00,39.0,35.0,30.26,East,84,0.0,1.0,84,0.00,,,0.00,,2013-10-26 13:11:00,
2013-10-26 08:22:00,41.0,36.0,30.27,ESE,113,0.0,2.0,81,0.00,,,0.00,,2013-10-26 13:22:00,
2013-10-26 08:42:00,43.0,37.0,30.27,ESE,103,0.0,3.0,79,0.00,,,0.00,,2013-10-26 13:42:00,
2013-10-26 08:52:00,45.0,38.0,30.27,East,86,1.0,3.0,76,0.00,,,0.00,,2013-10-26 13:52:00,
2013-10-26 09:11:00,47.0,39.0,30.27,ENE,75,1.0,4.0,73,0.00,,,0.00,,2013-10-26 14:11:00,
2013-10-26 09:22:00,49.0,39.0,30.27,East,91,2.0,4.0,69,0.00,,,0.00,,2013-10-26 14:22:00,
2013-10-26 09:42:00,50.0,39.0,30.27,ENE,65,1.0,4.0,67,0.00,,,0.00,,2013-10-26 14:42:00,
2013-10-26 09:52:00,51.0,40.0,30.26,ENE,68,1.0,5.0,66,0.00,,,0.00,,2013-10-26 14:52:00,
2013-10-26 10:12:00,53.0,41.0,30.27,ENE,70,0.0,3.0,64,0.00,,,0.00,,2013-10-26 15:12:00,
2013-10-26 10:23:00,55.0,41.0,30.27,SE,131,1.0,2.0,60,0.00,,,0.00,,2013-10-26 15:23:00,
2013-10-26 10:44:00,57.0,41.0,30.27,ENE,73,0.0,4.0,55,0.00,,,0.00,,2013-10-26 15:44:00,
2013-10-26 10:55:00,58.0,40.0,30.27,ESE,113,1.0,5.0,52,0.00,,,0.00,,2013-10-26 15:55:00,
2013-10-26 11:14:00,60.0,41.0,30.27,East,97,1.0,3.0,50,0.00,,,0.00,,2013-10-26 16:14:00,
2013-10-26 11:24:00,60.0,38.0,30.27,SSE,155,1.0,5.0,44,0.00,,,0.00,,2013-10-26 16:24:00,
2013-10-26 11:44:00,61.0,36.0,30.26,West,267,0.0,4.0,40,0.00,,,0.00,,2013-10-26 16:44:00,
2013-10-26 11:53:00,61.0,35.0,30.26,ENE,76,1.0,5.0,38,0.00,,,0.00,,2013-10-26 16:53:00,
2013-10-26 12:13:00,63.0,37.0,30.25,WSW,256,0.0,3.0,38,0.00,,,0.00,,2013-10-26 17:13:00,
2013-10-26 12:23:00,64.0,37.0,30.24,East,92,0.0,3.0,36,0.00,,,0.00,,2013-10-26 17:23:00,
2013-10-26 12:43:00,63.0,36.0,30.24,East,99,2.0,5.0,37,0.00,,,0.00,,2013-10-26 17:43:00,
2013-10-26 12:52:00,63.0,36.0,30.24,East,94,0.0,4.0,37,0.00,,,0.00,,2013-10-26 17:52:00,
2013-10-26 13:12:00,65.0,36.0,30.23,ENE,70,2.0,4.0,34,0.00,,,0.00,,2013-10-26 18:12:00,
2013-10-26 13:22:00,65.0,34.0,30.22,ENE,63,1.0,4.0,31,0.00,,,0.00,,2013-10-26 18:22:00,
2013-10-26 13:42:00,66.0,35.0,30.21,WSW,243,0.0,5.0,32,0.00,,,0.00,,2013-10-26 18:42:00,
2013-10-26 13:52:00,66.0,34.0,30.21,ESE,103,2.0,7.0,31,0.00,,,0.00,,2013-10-26 18:52:00,
2013-10-26 14:12:00,67.0,35.0,30.20,SSW,203,0.0,2.0,31,0.00,,,0.00,,2013-10-26 19:12:00,
2013-10-26 14:22:00,67.0,35.0,30.19,SSE,150,0.0,6.0,31,0.00,,,0.00,,2013-10-26 19:22:00,
2013-10-26 14:42:00,67.0,35.0,30.19,SSE,149,0.0,5.0,30,0.00,,,0.00,,2013-10-26 19:42:00,
2013-10-26 14:52:00,68.0,37.0,30.19,WSW,256,0.0,3.0,32,0.00,,,0.00,,2013-10-26 19:52:00,
2013-10-26 15:12:00,68.0,34.0,30.19,WSW,253,3.0,6.0,28,0.00,,,0.00,,2013-10-26 20:12:00,
2013-10-26 15:22:00,68.0,35.0,30.18,WNW,291,1.0,4.0,30,0.00,,,0.00,,2013-10-26 20:22:00,
2013-10-26 15:43:00,68.0,35.0,30.18,West,270,3.0,6.0,29,0.00,,,0.00,,2013-10-26 20:43:00,
2013-10-26 15:52:00,69.0,35.0,30.18,SW,215,0.0,4.0,29,0.00,,,0.00,,2013-10-26 20:52:00,
2013-10-26 16:11:00,68.0,35.0,30.17,West,263,4.0,6.0,30,0.00,,,0.00,,2013-10-26 21:11:00,
2013-10-26 16:22:00,68.0,39.0,30.16,SSW,193,1.0,4.0,34,0.00,,,0.00,,2013-10-26 21:22:00,
2013-10-26 16:43:00,69.0,38.0,30.17,SW,214,0.0,2.0,32,0.00,,,0.00,,2013-10-26 21:43:00,
2013-10-26 16:54:00,69.0,41.0,30.17,West,266,0.0,1.0,36,0.00,,,0.00,,2013-10-26 21:54:00,
2013-10-26 17:14:00,68.0,39.0,30.17,SE,145,0.0,1.0,34,0.00,,,0.00,,2013-10-26 22:14:00,
2013-10-26 17:24:00,67.0,41.0,30.16,East,96,0.0,0.0,38,0.00,,,0.00,,2013-10-26 22:24:00,
2013-10-26 17:43:00,65.0,41.0,30.16,ESE,105,0.0,0.0,41,0.00,,,0.00,,2013-10-26 22:43:00,
2013-10-26 17:53:00,64.0,43.0,30.15,ESE,105,0.0,0.0,46,0.00,,,0.00,,2013-10-26 22:53:00,
2013-10-26 18:12:00,61.0,42.0,30.15,ESE,104,0.0,0.0,50,0.00,,,0.00,,2013-10-26 23:12:00,
2013-10-26 18:22:00,59.0,42.0,30.15,ESE,104,0.0,0.0,54,0.00,,,0.00,,2013-10-26 23:22:00,
2013-10-26 18:42:00,57.0,41.0,30.16,ESE,104,0.0,0.0,56,0.00,,,0.00,,2013-10-26 23:42:00,
2013-10-26 18:52:00,55.0,42.0,30.16,ESE,105,0.0,0.0,62,0.00,,,0.00,,2013-10-26 23:52:00,
2013-10-26 19:12:00,54.0,41.0,30.16,ESE,105,0.0,0.0,61,0.00,,,0.00,,2013-10-27 00:12:00,
2013-10-26 19:22:00,53.0,41.0,30.16,ESE,105,0.0,0.0,63,0.00,,,0.00,,2013-10-27 00:22:00,
2013-10-26 19:42:00,52.0,41.0,30.16,ESE,105,0.0,0.0,67,0.00,,,0.00,,2013-10-27 00:42:00,
2013-10-26 19:52:00,51.0,41.0,30.16,ESE,105,0.0,0.0,68,0.00,,,0.00,,2013-10-27 00:52:00,
2013-10-26 20:12:00,51.0,41.0,30.16,ESE,104,0.0,0.0,69,0.00,,,0.00,,2013-10-27 01:12:00,
2013-10-26 20:22:00,51.0,42.0,30.16,ESE,105,0.0,0.0,70,0.00,,,0.00,,2013-10-27 01:22:00,
2013-10-26 20:42:00,50.0,42.0,30.16,ESE,104,0.0,0.0,73,0.00,,,0.00,,2013-10-27 01:42:00,
2013-10-26 20:52:00,49.0,41.0,30.16,ESE,104,0.0,0.0,75,0.00,,,0.00,,2013-10-27 01:52:00,
2013-10-26 21:12:00,49.0,42.0,30.16,ESE,104,0.0,0.0,76,0.00,,,0.00,,2013-10-27 02:12:00,
2013-10-26 21:22:00,48.0,41.0,30.16,ESE,104,0.0,0.0,77,0.00,,,0.00,,2013-10-27 02:22:00,
2013-10-26 21:42:00,48.0,41.0,30.16,ESE,105,0.0,0.0,78,0.00,,,0.00,,2013-10-27 02:42:00,
2013-10-26 21:52:00,47.0,41.0,30.16,ESE,104,0.0,0.0,80,0.00,,,0.00,,2013-10-27 02:52:00,
2013-10-26 22:12:00,47.0,42.0,30.16,ESE,104,0.0,0.0,82,0.00,,,0.00,,2013-10-27 03:12:00,
2013-10-26 22:22:00,47.0,41.0,30.17,ESE,105,0.0,0.0,81,0.00,,,0.00,,2013-10-27 03:22:00,
2013-10-26 22:45:00,46.0,41.0,30.16,ESE,105,0.0,0.0,81,0.00,,,0.00,,2013-10-27 03:45:00,
2013-10-26 22:55:00,47.0,41.0,30.16,ESE,104,0.0,0.0,80,0.00,,,0.00,,2013-10-27 03:55:00,
2013-10-26 23:02:00,-999.0,-99.9,30.16,ESE,105,0.0,0.0,-999,-99.99,,,-99.99,,2013-10-27 04:02:00,
2013-10-26 23:13:00,47.0,41.0,30.16,ESE,105,0.0,0.0,80,0.00,,,0.00,,2013-10-27 04:13:00,
2013-10-26 23:24:00,46.0,41.0,30.16,ESE,105,0.0,0.0,82,0.00,,,0.00,,2013-10-27 04:24:00,
2013-10-26 23:44:00,46.0,41.0,30.15,ESE,104,0.0,0.0,83,0.00,,,0.00,,2013-10-27 04:44:00,
2013-10-26 23:54:00,45.0,41.0,30.15,ESE,105,0.0,0.0,85,0.00,,,0.00,,2013-10-27 04:54:00,